Location: Unspecified
(41.1637°N, 24.2901°E)
Time: 16:38:31
(UTC+01:00)

ISS - Pass Details

Date: 12 January 2025
Orbit: 415 x 418 km, 51.6° (Epoch: 13 January)

Event Time Altitude Azimuth Distance (km) Brightness Sun altitude
Rises 17:12:43 0° 193° (SSW) 2,338 0.5 -10.6°
Reaches altitude 10° 17:15:23 10° 169° (S) 1,481 -0.9 -11.1°
Maximum altitude 17:17:27 16° 131° (SE) 1,193 -1.7 -11.5°
Enters shadow 17:18:33 14° 108° (ESE) 1,284 -1.8 -11.7°
